SPROUT

Last updated on Mon Aug 12 2024 00:02:57 GMT+0000 (Coordinated Universal Time)

1 39770U 14029E 24223.82148181 .04509954 43038-1 54842-2 0 9998 2 39770 97.9847 23.7422 0019267 294.8930 65.0350 16.11855434556195

Satellite not in orbit